Regional Weather Roundup
Issued by NWS

Home | Current Version | Previous Version | Text Only | Print | Product List | Glossary Off
Versions: 1 2 3 4 5 6 7 8 9 10 11 12 13 14 15 16 17 18 19 20 21 22 23 24 25 26 27 28 29 30 31 32 33 34 35 36 37 38 39 40 41 42 43 44 45 46 47 48 49 50

000
ASUS43 KDMX 230601
RWRIA

WEATHER ROUNDUP FOR IOWA
NATIONAL WEATHER SERVICE DES MOINES IA
100 AM CDT SUN JUL 23 2017

NOTE: "FAIR" INDICATES FEW OR NO CLOUDS BELOW 12,000 FEET WITH NO
SIGNIFICANT WEATHER AND/OR OBSTRUCTIONS TO VISIBILITY.

* - THESE STATIONS ARE NOT NWS STATIONS...THUS NOT UNDER NWS
QUALITY CONTROL.  THEY ALSO DO NOT REPORT WEATHER SUCH
AS PRECIPITATION OR FOG.

IAZ001>003-012>014-020>022-031>034-043>046-230700-
   NORTHWEST IOWA

CITY           SKY/WX    TMP DP  RH WIND       PRES   REMARKS
CARROLL *      CLOUDY    70  70 100 CALM      29.90S
CHEROKEE *     PTCLDY    67  67 100 CALM      29.91R FOG
DENISON *      FOG       70  70 100 CALM      29.93F VSB<1/4
ORANGE CITY *  CLEAR     72  70  94 CALM      29.93R FOG
SHELDON *      CLEAR     64  63  94 CALM      29.90F
SIOUX CITY     FOG       67  67 100 SW7       29.92R VSB 1/4
6HR MIN TEMP:  65; 6HR MAX TEMP:  83;

SPENCER        CLEAR     66  64  93 S6        29.91S
6HR MIN TEMP:  65; 6HR MAX TEMP:  85;

STORM LAKE *   CLEAR     72  70  94 W8        29.92S
$$

IAZ055>058-069>071-079>083-090>094-230700-
   SOUTHWEST IOWA

CITY           SKY/WX    TMP DP  RH WIND       PRES   REMARKS
ATLANTIC *     PTCLDY    70  70 100 N6        29.91S FOG
AUDUBON *      FOG       68  64  88 CALM      29.93F VSB 1
CLARINDA *       N/A     77  77 100 CALM      29.94S
COUNCIL BLFS * PTCLDY    75  75 100 CALM      29.94S
CRESTON *      CLOUDY    75  73  94 CALM      29.92S
HARLAN  *      FOG       68  68 100 CALM      29.96R VSB<1/4
LAMONI         CLOUDY    77  74  90 N5        29.90F
6HR MIN TEMP:  76; 6HR MAX TEMP:  89;

RED OAK *      CLOUDY    75  73  94 CALM      29.93S
SHENANDOAH *   CLOUDY    75  75 100 CALM      29.93S
$$

IAZ047>049-059>061-072>074-084-230700-
   CENTRAL IOWA

CITY           SKY/WX    TMP DP  RH WIND       PRES   REMARKS
AMES           CLEAR     71  71 100 W3        29.89R
6HR MIN TEMP:  71; 6HR MAX TEMP:  83;

ANKENY *       MOCLDY    77  73  88 NW5       29.89F
BOONE *        CLEAR     73  72  94 NW5       29.89S
CHARITON *     CLOUDY    77  73  88 CALM      29.88F
DES MOINES     CLOUDY    79  73  82 NW6       29.87S HX  82
6HR MIN TEMP:  78; 6HR MAX TEMP:  86;

GRINNELL*      MOCLDY    74  72  93 W3        29.90S
KNOXVILLE *    CLOUDY    77  73  88 NW5       29.87S
MARSHALLTOWN   PTCLDY    73  72  96 NW6       29.87S
6HR MIN TEMP:  72; 6HR MAX TEMP:  82;

NEWTON *       CLOUDY    73  73 100 NW5       29.88F
PELLA *          N/A     77  73  87 CALM      29.88F
$$

IAZ004>006-015-016-023>025-035-036-230700-
   NORTH CENTRAL IOWA

CITY           SKY/WX    TMP DP  RH WIND       PRES   REMARKS
ALGONA *       CLEAR     68  68 100 S6        29.89R
ESTHERVILLE    CLEAR     66  65  96 W7        29.89S
6HR MIN TEMP:  65; 6HR MAX TEMP:  83;

FORT DODGE *     N/A     70  66  88 CALM      29.91R VSB 3/4
MASON CITY     CLEAR     69  67  93 W3        29.90S
6HR MIN TEMP:  68; 6HR MAX TEMP:  83;

FOREST CITY *    N/A     68  68 100 SE5       29.88S
WEBSTER CITY * PTCLDY    68  68 100 CALM      29.87F FOG
IOWA FALLS *     N/A     71  70  95 W3        29.90F FOG
$$

IAZ007>011-017>019-026>030-037>042-050>054-066-230700-
   NORTHEAST IOWA

CITY           SKY/WX    TMP DP  RH WIND       PRES   REMARKS
CEDAR RAPIDS   PTCLDY    72  72 100 CALM      29.85R
6HR MIN TEMP:  71; 6HR MAX TEMP:  81;

CHARLES CITY * CLEAR     70  70 100 W5        29.89R
DECORAH *      CLEAR     73  72  94 CALM      29.86R
DUBUQUE        CLEAR     71  70  96 SW3       29.85R
6HR MIN TEMP:  71; 6HR MAX TEMP:  81;

MONTICELLO *   CLOUDY    73  72  94 W5        29.85R
OELWEIN *        N/A    N/A N/A N/A MISG        N/A
WATERLOO       CLEAR     74  71  91 NW5       29.85R
6HR MIN TEMP:  74; 6HR MAX TEMP:  81;

$$

IAZ064-065-067-068-078-230700-
   EAST CENTRAL IOWA

CITY           SKY/WX    TMP DP  RH WIND       PRES   REMARKS
DAVENPORT      CLOUDY    75  73  93 W5        29.85R
6HR MIN TEMP:  73; 6HR MAX TEMP:  79;

IOWA CITY      PTCLDY    77  73  87 NW6       29.86R
6HR MIN TEMP:  77; 6HR MAX TEMP:  84;

MUSCATINE *    CLOUDY    75  73  94 NW5       29.84F
QUAD CITIES    MOCLDY    77  74  90 W5        29.82F
6HR MIN TEMP:  75; 6HR MAX TEMP:  84;

$$

IAZ062-063-075>077-085>089-095>099-230700-
   SOUTHEAST IOWA

CITY           SKY/WX    TMP DP  RH WIND       PRES   REMARKS
BURLINGTON     PTCLDY    77  77 100 NW3       29.83F
6HR MIN TEMP:  77; 6HR MAX TEMP:  86;

FAIRFIELD *    CLOUDY    73  72  94 NW7       29.84F
FORT MADISON * MOCLDY    75  75 100 N3        29.84F FOG
KEOKUK *       PTCLDY    77  77 100 N6        29.83F
OSKALOOSA *      N/A     74  72  92 NW5       29.87S
OTTUMWA        CLOUDY    76  74  93 NW7       29.86F
6HR MIN TEMP:  75; 6HR MAX TEMP:  87;

WASHINGTON *   CLOUDY    73  73 100 NW6       29.86F
$$

ABBREVIATIONS USED IN REMARKS
   TC - TEMPERATURES IN CELSIUS
  WCI - WIND CHILL INDEX
   HX - HEAT INDEX
  VSB - VISIBILITY
$$





USA.gov is the U.S. government's official web portal to all federal, state and local government web resources and services.